Location: Corralito
(10.2667°N, 66.9500°W)
Time: 09:28:01
(UTC+00:00)

GPS 2-12 Rocket1 - Pass Details

Date: 09 December 2023
Orbit: 577 x 637 km, 20.0° (Epoch: 23 February)

Event Time Altitude Azimuth Distance (km) Brightness Sun altitude
Exits shadow 09:36:37 21° 275° (W) 1,298 4.1 -13.9°
Maximum altitude 09:39:22 61° 200° (SSW) 651 3.1 -13.2°
Drops below altitude 10° 09:43:40 10° 120° (ESE) 1,870 7.0 -12.3°
Sets 09:46:00 0° 116° (ESE) 2,771 8.5 -11.7°
